Platteville, WI

12:46 AM CDT on March 23, 2017 (GMT -0500)
Platteville Municipal

Weather History for KPVB - June, 2013

Change the Weather History Date:

Saturday, June 15, 2013

  Actual Average (KDBQ) Record (KDBQ)
Temperature  
Mean Temperature 71 °F -  
Max Temperature 81 °F 75 °F 95 °F (1894)
Min Temperature 61 °F 58 °F 44 °F (1999)
Cooling Degree Days 6    
Growing Degree Days 21 (Base 50)    
Moisture  
Dew Point 62 °F    
Average Humidity 74    
Maximum Humidity 89    
Minimum Humidity 56    
Precipitation  
Precipitation 0.01 in - - ()
Sea Level Pressure  
Sea Level Pressure 29.95 in    
Wind  
Wind Speed 9 mph (South)    
Max Wind Speed 20 mph    
Max Gust Speed 29 mph    
Visibility 10 miles    
Events      
Averages and records for this station are not official NWS values.
T = Trace of Precipitation, MM = Missing Value Source: NWS Daily Summary

Daily Weather History Graph

Daily Weather History Graph

Search for Another Location

Airport or City:

Trip Planner

Search our weather history database for the weather conditions in past years. The results will help you decide how hot, cold, wet, or windy it might be!

Date:

Astronomy

Jun. 15, 2013 Rise Set
Actual Time 5:23 AM CDT 8:41 PM CDT
Civil Twilight 4:48 AM CDT 9:16 PM CDT
Nautical Twilight 4:02 AM CDT 10:02 PM CDT
Astronomical Twilight 3:07 AM CDT 10:57 PM CDT
Moon 12:06 PM CDT (6/15) 12:09 AM CDT (6/15)
Length of Visible Light 16h 28m
Length of Day
15h 18m
Waxing Crescent, 40% of the Moon is Illuminated
Jun 15
Waxing Crescent
Jun 16
First Quarter
Jun 23
Full
Jun 29
Last Quarter
Jul 8
New

Hourly Weather History & Observations

Time (CDT) Temp. Heat Index Dew Point Humidity Pressure Visibility Wind Dir Wind Speed Gust Speed Precip Events Conditions
12:15 AM 67.5 °F - 55.8 °F 66% 30.03 in 10.0 mi SE 6.9 mph - N/A   Scattered Clouds
12:35 AM 67.1 °F - 56.1 °F 68% 30.03 in 10.0 mi SE 5.8 mph - N/A   Scattered Clouds
12:55 AM 66.6 °F - 56.3 °F 69% 30.02 in 10.0 mi SE 8.1 mph - N/A   Clear
1:15 AM 67.1 °F - 55.8 °F 67% 30.00 in 10.0 mi SE 9.2 mph - N/A   Scattered Clouds
1:35 AM 67.1 °F - 55.8 °F 67% 30.01 in 10.0 mi SE 8.1 mph - N/A   Mostly Cloudy
1:55 AM 66.6 °F - 56.5 °F 70% 30.02 in 10.0 mi SSE 5.8 mph - N/A   Mostly Cloudy
2:15 AM 66.2 °F - 57.2 °F 73% 30.03 in 10.0 mi South 3.5 mph - N/A   Overcast
2:35 AM 65.7 °F - 58.1 °F 77% 30.03 in 10.0 mi South 4.6 mph - N/A   Mostly Cloudy
2:55 AM 65.7 °F - 58.1 °F 77% 30.01 in 10.0 mi SSE 4.6 mph - N/A   Overcast
3:15 AM 64.8 °F - 58.5 °F 80% 30.00 in 10.0 mi ESE 5.8 mph - N/A   Mostly Cloudy
3:35 AM 65.3 °F - 58.5 °F 78% 30.01 in 10.0 mi NE 4.6 mph - N/A   Overcast
3:55 AM 64.8 °F - 58.6 °F 81% 30.01 in 10.0 mi East 8.1 mph - N/A   Mostly Cloudy
4:15 AM 64.4 °F - 59.0 °F 83% 30.01 in 10.0 mi East 8.1 mph - N/A   Scattered Clouds
4:35 AM 64.4 °F - 59.0 °F 83% 30.00 in 10.0 mi East 9.2 mph - N/A   Mostly Cloudy
4:55 AM 64.4 °F - 59.0 °F 83% 29.99 in 10.0 mi East 9.2 mph - N/A   Scattered Clouds
5:15 AM 63.9 °F - 58.5 °F 83% 29.99 in 10.0 mi East 9.2 mph - N/A   Clear
5:35 AM 63.5 °F - 57.6 °F 81% 29.98 in 10.0 mi East 11.5 mph - N/A   Scattered Clouds
5:55 AM 63.3 °F - 57.0 °F 80% 29.98 in 10.0 mi ESE 13.8 mph - N/A   Scattered Clouds
6:15 AM 62.8 °F - 56.7 °F 80% 29.97 in 10.0 mi East 12.7 mph 18.4 mph N/A   Scattered Clouds
6:35 AM 62.6 °F - 56.8 °F 81% 29.97 in 10.0 mi ESE 10.4 mph - N/A   Scattered Clouds
6:55 AM 62.2 °F - 57.4 °F 84% 29.98 in 10.0 mi East 9.2 mph - N/A   Scattered Clouds
7:15 AM 61.9 °F - 57.7 °F 86% 29.98 in 10.0 mi ESE 10.4 mph - N/A   Mostly Cloudy
7:35 AM 61.9 °F - 58.1 °F 87% 29.98 in 10.0 mi ESE 11.5 mph - N/A   Clear
7:55 AM 62.1 °F - 58.6 °F 89% 29.97 in 7.0 mi ESE 11.5 mph - N/A   Mostly Cloudy
8:15 AM 62.6 °F - 59.0 °F 88% 29.95 in 10.0 mi SE 10.4 mph - 0.01 in   Scattered Clouds
8:35 AM 63.5 °F - 59.2 °F 86% 29.99 in 10.0 mi SSE 4.6 mph - 0.01 in   Scattered Clouds
8:55 AM 63.9 °F - 59.5 °F 86% 29.99 in 10.0 mi SE 8.1 mph - 0.01 in   Clear
9:15 AM 64.6 °F - 60.1 °F 85% 29.99 in 10.0 mi SE 6.9 mph - N/A   Clear
9:35 AM 65.5 °F - 60.3 °F 83% 30.00 in 10.0 mi SSE 5.8 mph - N/A   Clear
9:55 AM 65.7 °F - 60.6 °F 84% 30.00 in 10.0 mi SSE 5.8 mph - N/A   Scattered Clouds
10:15 AM 68.2 °F - 61.5 °F 79% 29.99 in 10.0 mi SSE 5.8 mph - N/A   Scattered Clouds
10:35 AM 70.0 °F - 62.1 °F 76% 29.98 in 10.0 mi SSE 9.2 mph - N/A   Scattered Clouds
10:55 AM 70.7 °F - 62.6 °F 75% 29.98 in 10.0 mi SSE 10.4 mph - N/A   Scattered Clouds
11:15 AM 72.5 °F - 64.0 °F 75% 29.97 in 10.0 mi SSE 9.2 mph - N/A   Scattered Clouds
11:35 AM 73.6 °F - 64.6 °F 73% 29.97 in 10.0 mi South 8.1 mph - N/A   Scattered Clouds
11:55 AM 73.8 °F - 64.2 °F 72% 29.98 in 10.0 mi South 15.0 mph - N/A   Scattered Clouds
12:15 PM 75.9 °F - 65.8 °F 71% 29.97 in 10.0 mi South 12.7 mph - N/A   Mostly Cloudy
12:35 PM 76.1 °F - 65.8 °F 70% 29.97 in 10.0 mi SSW 10.4 mph 16.1 mph N/A   Scattered Clouds
12:55 PM 77.9 °F - 66.4 °F 68% 29.98 in 10.0 mi SSW 12.7 mph - N/A   Scattered Clouds
1:15 PM 78.6 °F - 65.8 °F 65% 29.99 in 10.0 mi SSW 12.7 mph 19.6 mph N/A   Mostly Cloudy
1:35 PM 79.5 °F - 64.9 °F 61% 29.98 in 10.0 mi SW 11.5 mph - N/A   Mostly Cloudy
1:55 PM 79.5 °F - 64.2 °F 59% 29.98 in 10.0 mi SW 8.1 mph - N/A   Overcast
2:15 PM 80.6 °F 82.3 °F 64.6 °F 58% 29.95 in 10.0 mi SW 5.8 mph - N/A   Mostly Cloudy
2:35 PM 80.1 °F 81.5 °F 63.1 °F 56% 29.96 in 10.0 mi SW 12.7 mph 16.1 mph N/A   Mostly Cloudy
2:55 PM 80.8 °F 82.5 °F 64.6 °F 58% 29.94 in 10.0 mi WSW 8.1 mph - N/A   Mostly Cloudy
3:15 PM 80.8 °F 82.5 °F 64.6 °F 58% 29.94 in 10.0 mi SW 8.1 mph - N/A   Scattered Clouds
3:35 PM 80.1 °F 81.7 °F 64.0 °F 58% 29.90 in 10.0 mi South 4.6 mph - N/A   Scattered Clouds
3:55 PM 81.7 °F 83.5 °F 65.1 °F 57% 29.92 in 10.0 mi SSW 11.5 mph - N/A   Clear
4:15 PM 80.6 °F 82.4 °F 65.3 °F 59% 29.93 in 10.0 mi SW 13.8 mph - N/A   Scattered Clouds
4:35 PM 79.9 °F - 66.2 °F 63% 29.91 in 10.0 mi SSW 9.2 mph - N/A   Mostly Cloudy
4:55 PM 81.5 °F 83.7 °F 66.2 °F 60% 29.86 in 10.0 mi South 9.2 mph - N/A   Scattered Clouds
5:15 PM 80.1 °F 82.0 °F 65.5 °F 61% 29.85 in 10.0 mi South 9.2 mph - N/A   Scattered Clouds
5:35 PM 81.0 °F 83.4 °F 67.1 °F 63% 29.84 in 10.0 mi South 17.3 mph 20.7 mph N/A   Scattered Clouds
5:55 PM 78.8 °F - 66.4 °F 66% 29.85 in 10.0 mi South 16.1 mph - N/A   Scattered Clouds
6:15 PM 78.4 °F - 66.4 °F 66% 29.85 in 10.0 mi South 15.0 mph 18.4 mph N/A   Scattered Clouds
6:35 PM 77.9 °F - 66.7 °F 68% 29.86 in 10.0 mi SSW 11.5 mph - N/A   Clear
6:55 PM 77.7 °F - 66.7 °F 69% 29.88 in 10.0 mi WSW 9.2 mph - N/A   Scattered Clouds
7:15 PM 77.2 °F - 67.1 °F 71% 29.89 in 10.0 mi WSW 6.9 mph - N/A   Scattered Clouds
7:35 PM 77.0 °F - 67.6 °F 73% 29.89 in 10.0 mi WSW 5.8 mph - N/A   Mostly Cloudy
7:55 PM 77.0 °F - 67.6 °F 73% 29.90 in 10.0 mi SW 10.4 mph - N/A   Overcast
8:15 PM 77.0 °F - 66.7 °F 70% 29.89 in 10.0 mi SW 12.7 mph - N/A   Mostly Cloudy
8:35 PM 76.3 °F - 66.4 °F 71% 29.88 in 10.0 mi SW 9.2 mph - N/A   Mostly Cloudy
8:55 PM 75.2 °F - 66.4 °F 74% 29.88 in 10.0 mi SW 6.9 mph - N/A   Scattered Clouds
9:15 PM 74.7 °F - 66.6 °F 76% 29.88 in 10.0 mi SW 6.9 mph - N/A   Mostly Cloudy
9:35 PM 74.7 °F - 66.6 °F 76% 29.89 in 10.0 mi WSW 6.9 mph - N/A   Mostly Cloudy
9:55 PM 73.6 °F - 66.6 °F 79% 29.90 in 10.0 mi West 5.8 mph - N/A   Mostly Cloudy
10:15 PM 72.5 °F - 66.4 °F 81% 29.90 in 10.0 mi West 4.6 mph - N/A   Clear
10:35 PM 71.2 °F - 66.4 °F 85% 29.91 in 10.0 mi South 8.1 mph - N/A   Clear
10:55 PM 72.0 °F - 67.3 °F 85% 29.92 in 10.0 mi SSW 9.2 mph - N/A   Scattered Clouds
11:15 PM 72.9 °F - 67.8 °F 84% 29.92 in 10.0 mi SW 18.4 mph 21.9 mph N/A   Overcast
11:35 PM 73.0 °F - 66.2 °F 79% 29.92 in 10.0 mi WSW 17.3 mph 23.0 mph N/A   Overcast
11:55 PM 72.5 °F - 64.8 °F 77% 29.93 in 10.0 mi SW 19.6 mph 28.8 mph N/A   Overcast